Wind_Speed
38 40 45 47 49 53 51 54 55 61 66 63 64 64 68 68 69 73 74 75 80 80 80 81 82 83 87 87 79 75 75 70 57 52 47 62 70 84 97 112 128 136 134 131
39 43 44 48 47 48 54 57 59 62 66 65 69 69 70 69 74 78 79 79 83 86 85 83 87 90 88 88 83 83 77 69 66 59 44 51 64 73 89 96 110 125 140 136
36 40 44 45 48 50 54 57 60 64 67 69 71 73 72 71 77 81 81 82 85 86 87 88 94 89 92 91 87 80 73 74 67 62 58 51 49 63 82 96 107 109 124 142
39 45 47 47 51 54 57 60 63 67 68 72 76 75 77 77 79 82 85 88 90 92 90 92 94 99 90 89 88 80 82 77 70 66 66 59 55 54 66 92 100 110 107 119
46 48 46 51 56 58 57 59 64 67 68 73 76 77 80 79 82 84 87 91 93 92 90 95 95 98 96 96 85 85 80 80 73 70 76 69 66 56 59 74 94 105 111 108
49 48 53 60 61 61 59 61 65 67 68 71 75 78 83 83 84 88 91 94 94 97 94 100 100 93 97 91 91 84 81 79 77 75 71 63 66 63 63 63 84 97 104 108
48 48 50 53 59 61 60 63 66 65 69 72 77 80 86 87 87 90 92 96 94 97 100 103 98 96 88 87 85 81 87 80 77 71 63 59 59 62 65 69 67 89 98 106
53 49 53 57 59 59 60 62 66 68 70 72 77 84 86 89 88 92 92 95 97 102 105 104 98 100 88 90 86 92 93 84 71 62 60 50 52 60 63 68 75 75 93 100
51 56 56 58 62 66 62 66 68 70 73 76 83 87 86 89 89 93 93 96 101 105 109 112 108 101 88 82 92 97 88 74 62 52 50 44 43 53 62 68 74 79 83 95
58 56 57 61 63 73 71 72 72 74 75 79 85 86 90 89 93 92 95 100 104 110 116 116 114 105 86 86 98 90 77 66 56 46 41 43 41 44 59 66 71 76 81 87
63 63 62 68 69 71 75 76 78 80 81 88 90 87 92 94 92 94 97 103 108 114 117 118 120 103 92 96 92 74 72 67 52 43 38 43 42 41 52 63 66 74 77 81
68 64 63 65 71 73 78 80 82 84 86 90 93 92 94 95 94 96 101 107 112 116 118 122 119 106 93 99 94 80 66 61 54 43 39 41 42 40 44 55 61 66 76 77
70 64 67 67 73 76 78 81 82 85 88 94 94 100 98 98 100 100 105 108 113 119 119 124 120 108 98 92 79 71 63 56 50 46 42 40 41 38 40 47 55 60 69 75
74 67 72 76 76 79 81 85 83 86 91 93 98 101 102 103 105 106 111 111 115 120 120 124 119 109 96 93 77 66 62 54 50 47 46 40 38 38 37 42 48 56 62 72
75 74 77 79 79 81 84 83 86 88 94 98 100 99 104 107 109 108 110 114 116 121 122 127 113 103 95 84 75 63 58 52 49 49 48 45 38 36 37 39 44 50 59 66
77 79 78 80 83 84 80 84 85 89 97 97 101 97 106 107 111 110 112 117 119 123 125 121 109 92 85 80 73 66 58 51 49 48 46 46 43 38 35 37 41 46 53 60
83 81 82 81 83 83 84 84 85 91 95 101 100 105 105 107 113 113 112 117 120 120 128 117 109 90 83 76 71 65 58 52 50 48 46 45 43 41 37 36 38 42 49 55
84 87 89 88 86 85 84 83 88 94 99 100 104 106 109 111 116 116 115 118 119 122 124 114 103 89 82 74 70 64 56 52 49 46 44 44 42 40 39 36 35 39 43 52
88 87 88 86 86 85 86 88 91 100 97 100 105 107 111 113 117 113 113 115 121 125 120 111 99 81 80 76 72 65 54 51 48 45 44 44 44 41 39 36 35 36 41 46
85 87 90 89 90 90 89 90 98 101 94 104 108 109 114 116 116 114 116 116 121 121 116 109 85 81 80 77 73 65 55 52 47 45 43 45 43 41 37 36 35 35 37 42
88 89 90 91 94 93 95 98 98 100 99 103 110 115 115 116 114 116 118 120 124 120 112 89 80 80 82 79 71 63 55 52 47 44 42 42 43 42 40 36 36 35 34 37
90 91 92 96 100 95 99 97 100 104 106 112 116 121 117 119 116 116 119 120 123 120 106 87 79 79 83 81 72 63 56 51 46 44 41 42 43 42 38 35 34 36 34 33
94 97 96 97 97 99 103 105 106 107 116 116 120 120 116 113 115 118 121 122 121 107 99 82 78 78 84 80 70 62 57 52 48 44 40 41 43 42 39 34 32 35 35 31
97 97 100 104 102 106 111 112 111 110 117 118 118 118 116 115 117 119 121 119 113 98 92 77 78 83 87 79 69 62 57 51 49 46 41 40 43 42 39 37 32 32 34 32
101 102 101 105 108 112 111 110 112 120 121 119 118 117 118 117 120 122 118 118 100 93 87 76 81 87 88 78 67 60 57 52 49 46 43 40 43 43 37 37 32 30 30 32
105 103 107 107 112 113 114 112 117 117 117 120 118 119 118 122 123 119 118 108 93 90 83 77 81 88 86 76 65 59 56 53 51 47 44 42 42 44 40 32 34 30 28 29
Wind_Direction
302 304 301 299 304 313 311 310 314 322 324 328 333 333 334 331 329 329 328 326 327 328 326 323 324 324 322 316 314 310 309 309 309 292 264 243 236 231 231 232 232 229 228 229
304 308 309 310 306 311 309 308 311 317 319 323 327 330 331 328 329 329 328 325 325 323 326 326 328 330 323 317 316 315 314 312 307 298 276 252 239 231 230 228 230 232 230 228
304 305 307 307 305 305 309 306 309 318 317 319 322 324 327 325 327 327 326 325 323 323 324 328 331 330 326 321 320 321 317 311 306 296 288 276 254 238 229 229 227 228 231 230
298 302 302 303 306 305 310 308 309 315 316 318 321 323 323 323 324 325 326 325 323 323 322 330 333 330 322 320 319 320 316 312 302 294 290 285 268 251 237 227 227 228 227 229
300 302 302 303 303 304 307 306 309 311 315 318 319 320 321 322 323 325 325 325 325 325 326 332 333 329 325 320 322 321 314 312 305 296 289 282 274 260 246 233 225 225 228 226
299 297 302 306 302 305 304 305 308 312 315 317 317 319 320 322 324 322 323 325 325 326 329 335 335 328 325 323 324 317 317 309 306 298 288 282 271 258 248 237 230 225 223 225
293 294 306 313 309 305 305 308 310 312 314 316 318 319 318 322 322 321 323 325 327 329 332 338 334 331 324 319 320 312 316 312 306 298 291 280 268 258 248 235 234 230 225 223
290 292 304 314 316 311 308 309 313 314 313 317 320 319 320 321 320 322 324 326 330 331 333 337 335 333 327 324 319 316 318 313 305 293 287 277 265 256 252 244 234 234 229 225
285 292 302 307 312 313 313 311 314 316 317 317 318 319 320 322 321 324 326 328 331 332 335 336 337 333 326 324 319 317 315 311 303 291 287 281 267 253 251 245 239 236 232 228
285 291 299 304 309 310 309 309 310 313 315 317 321 322 320 321 324 325 327 331 330 331 332 336 337 331 328 325 322 319 314 312 308 297 297 290 279 259 249 247 242 238 237 232
285 288 296 306 305 309 307 307 307 310 313 314 322 322 323 323 325 327 330 331 332 331 331 334 335 333 330 325 323 320 319 314 309 303 304 296 287 269 253 248 246 240 239 235
285 288 293 304 303 305 306 305 309 310 311 314 323 322 326 327 326 327 330 332 334 332 333 334 334 333 330 326 325 324 322 316 312 308 308 302 294 277 261 251 248 244 238 238
283 289 296 297 301 300 305 307 310 312 311 316 320 323 327 328 328 329 329 330 330 331 333 336 334 332 331 327 327 325 324 319 313 313 310 305 295 283 266 256 251 246 241 237
282 290 295 295 296 300 304 307 309 308 312 317 318 325 325 327 328 329 329 328 330 329 333 335 333 331 329 326 329 329 325 320 316 316 313 307 297 289 275 260 255 249 243 240
283 292 292 295 296 301 307 308 305 304 314 317 321 325 324 326 328 328 328 328 329 330 332 332 332 328 327 329 328 331 324 320 319 316 311 309 300 292 283 268 258 253 246 242
284 290 292 294 299 304 307 307 300 308 313 315 321 321 322 323 326 325 326 327 329 329 331 331 330 330 328 332 332 334 327 322 319 316 309 306 305 296 287 276 263 256 250 245
284 288 289 293 299 301 306 302 305 311 310 314 319 319 321 320 322 324 325 326 327 328 329 330 328 328 329 332 334 332 327 324 321 315 311 305 303 300 294 283 269 259 252 248
285 288 290 293 298 302 305 305 305 309 310 314 315 319 319 318 319 322 323 324 327 329 329 329 325 325 329 334 335 331 327 326 320 313 310 307 304 299 294 288 277 265 256 250
287 292 294 297 302 303 307 304 304 309 311 310 315 316 316 318 317 321 323 326 326 328 329 327 325 327 328 335 336 330 329 327 319 313 310 308 304 301 295 290 285 274 263 254
288 290 293 297 297 300 303 300 304 309 309 310 313 312 312 316 317 321 324 324 326 326 328 327 326 328 330 336 335 330 330 328 318 314 311 307 304 301 298 293 288 281 271 261
284 287 289 292 295 298 300 299 303 307 307 306 309 310 313 315 319 321 323 325 324 327 326 330 327 329 336 336 334 330 331 328 318 316 312 308 305 305 301 296 291 286 277 267
281 284 287 288 294 296 295 298 300 304 305 306 306 311 312 315 317 319 321 324 324 325 324 326 331 334 335 336 333 329 331 327 319 316 314 311 308 306 303 298 293 289 284 274
278 281 286 289 292 294 295 296 299 302 305 306 308 309 312 315 317 319 321 320 323 323 325 325 330 335 335 335 332 329 330 326 320 317 314 313 311 311 309 304 294 290 287 281
279 281 286 288 291 293 296 296 298 300 302 306 307 310 312 315 318 319 318 321 323 323 326 327 333 336 334 333 330 329 329 325 321 319 316 315 313 313 312 308 302 290 288 288
278 283 286 288 290 290 293 294 298 300 301 304 305 309 312 316 315 317 319 321 322 325 326 329 336 335 333 331 330 328 327 324 321 320 319 319 317 315 315 311 304 294 288 286
281 282 282 284 287 291 291 294 297 299 300 302 307 311 311 312 314 316 318 320 320 326 325 329 335 333 331 329 330 327 325 324 321 321 321 322 321 318 317 314 310 301 289 286
Height
10680 10678 10676 10673 10670 10667 10662 10656 10650 10643 10637 10629 10623 10617 10608 10598 10590 10584 10575 10565 10556 10546 10536 10525 10515 10501 10485 10472 10464 10460 10453 10448 10439 10435 10432 10433 10433 10438 10445 10451 10462 10473 10483 10490
10672 10671 10668 10666 10663 10659 10654 10649 10643 10636 10630 10622 10616 10608 10598 10589 10581 10572 10562 10551 10542 10531 10518 10507 10492 10480 10466 10452 10442 10433 10424 10415 10410 10406 10406 10406 10406 10408 10413 10419 10429 10440 10454 10467
10664 10663 10661 10659 10655 10651 10646 10641 10635 10629 10622 10613 10607 10601 10589 10579 10571 10562 10550 10540 10529 10516 10502 10487 10474 10460 10445 10431 10419 10409 10400 10391 10385 10381 10377 10380 10382 10382 10385 10392 10400 10408 10422 10435
10655 10654 10653 10650 10647 10642 10637 10632 10626 10621 10614 10605 10595 10591 10580 10569 10560 10550 10537 10526 10514 10501 10486 10472 10456 10441 10423 10408 10399 10387 10380 10370 10360 10355 10351 10352 10353 10355 10358 10362 10371 10380 10389 10400
10647 10646 10644 10641 10637 10633 10628 10623 10617 10611 10604 10596 10586 10577 10568 10558 10549 10537 10525 10513 10499 10484 10471 10457 10438 10418 10402 10388 10378 10367 10355 10344 10336 10328 10323 10325 10327 10326 10331 10337 10341 10348 10360 10372
10638 10636 10634 10632 10627 10622 10617 10612 10608 10603 10594 10588 10576 10567 10557 10547 10539 10526 10512 10498 10483 10468 10453 10438 10421 10402 10385 10367 10357 10342 10330 10319 10310 10300 10297 10294 10295 10297 10302 10310 10319 10321 10330 10345
10628 10626 10624 10620 10616 10611 10606 10601 10596 10594 10586 10578 10568 10558 10544 10534 10524 10512 10497 10482 10467 10452 10439 10424 10406 10388 10368 10352 10335 10319 10305 10294 10285 10274 10268 10266 10266 10268 10272 10280 10292 10300 10305 10314
10618 10615 10612 10609 10604 10600 10594 10589 10583 10579 10575 10567 10557 10547 10535 10524 10511 10499 10484 10469 10453 10436 10423 10407 10387 10369 10348 10330 10311 10293 10281 10270 10263 10253 10245 10245 10243 10243 10247 10254 10263 10273 10282 10290
10606 10605 10602 10597 10593 10588 10583 10576 10570 10565 10561 10555 10545 10534 10521 10511 10499 10485 10469 10453 10436 10420 10402 10385 10369 10353 10336 10318 10298 10277 10261 10250 10242 10234 10226 10223 10223 10222 10223 10228 10237 10245 10255 10265
10593 10595 10591 10587 10582 10576 10570 10563 10556 10551 10547 10541 10534 10522 10506 10497 10485 10469 10453 10437 10420 10402 10386 10370 10353 10334 10318 10301 10282 10262 10245 10233 10223 10215 10209 10205 10203 10203 10203 10206 10214 10223 10232 10241
10578 10580 10581 10576 10571 10565 10557 10550 10544 10538 10531 10523 10518 10508 10494 10481 10467 10453 10438 10422 10405 10388 10373 10356 10337 10319 10304 10286 10267 10247 10226 10214 10207 10200 10195 10190 10186 10186 10185 10187 10192 10202 10210 10221
10565 10568 10568 10563 10558 10552 10545 10537 10531 10525 10517 10506 10498 10493 10479 10466 10452 10439 10423 10407 10392 10376 10359 10341 10320 10301 10284 10265 10242 10228 10214 10200 10192 10184 10180 10176 10171 10170 10169 10170 10174 10181 10190 10199
10552 10556 10554 10552 10545 10539 10533 10525 10517 10511 10501 10494 10482 10470 10459 10450 10436 10422 10407 10394 10377 10361 10343 10324 10304 10284 10268 10250 10231 10215 10200 10190 10179 10171 10167 10164 10158 10156 10155 10153 10157 10162 10169 10179
10537 10541 10540 10536 10532 10527 10521 10511 10504 10495 10486 10480 10466 10455 10441 10432 10420 10408 10392 10378 10363 10346 10328 10308 10290 10270 10255 10239 10220 10203 10189 10179 10168 10159 10154 10151 10146 10142 10141 10140 10141 10145 10152 10160
10525 10528 10523 10521 10517 10513 10508 10500 10489 10479 10471 10463 10456 10441 10425 10415 10404 10393 10377 10362 10348 10329 10313 10295 10277 10259 10241 10222 10207 10193 10180 10167 10158 10149 10142 10138 10135 10131 10128 10127 10127 10129 10134 10141
10511 10513 10508 10506 10501 10498 10496 10487 10472 10467 10454 10447 10441 10430 10415 10402 10392 10380 10365 10348 10333 10317 10302 10285 10266 10248 10229 10210 10192 10179 10167 10158 10149 10141 10134 10127 10123 10120 10117 10115 10115 10115 10118 10123
10496 10496 10492 10493 10487 10484 10486 10468 10459 10451 10440 10431 10425 10413 10405 10391 10380 10366 10352 10338 10324 10307 10291 10273 10254 10236 10219 10200 10181 10170 10157 10147 10138 10131 10124 10117 10112 10108 10105 10103 10101 10102 10103 10106
10480 10478 10475 10475 10472 10469 10463 10455 10442 10436 10428 10418 10409 10401 10389 10379 10367 10354 10340 10327 10311 10295 10278 10260 10240 10223 10206 10188 10172 10161 10148 10137 10128 10122 10116 10108 10102 10098 10094 10091 10089 10088 10090 10091
10461 10458 10453 10452 10450 10450 10450 10439 10429 10421 10420 10403 10398 10387 10377 10368 10354 10342 10327 10314 10298 10282 10264 10246 10226 10207 10192 10174 10160 10149 10137 10127 10119 10113 10105 10098 10092 10087 10083 10079 10076 10075 10075 10077
10446 10442 10436 10437 10433 10434 10436 10422 10410 10406 10412 10391 10382 10372 10364 10355 10342 10328 10315 10301 10284 10268 10251 10233 10211 10192 10176 10163 10149 10139 10127 10118 10109 10103 10095 10088 10081 10076 10073 10068 10064 10062 10061 10063
10431 10427 10424 10421 10416 10424 10415 10403 10399 10395 10389 10382 10369 10360 10352 10340 10329 10315 10302 10287 10270 10254 10236 10220 10199 10181 10163 10151 10138 10127 10116 10108 10100 10093 10086 10078 10071 10065 10060 10056 10051 10049 10048 10048
10416 10410 10412 10408 10408 10407 10395 10391 10383 10378 10372 10364 10355 10347 10337 10326 10314 10300 10286 10272 10255 10240 10223 10208 10187 10168 10153 10139 10126 10116 10106 10099 10091 10082 10075 10068 10060 10054 10049 10044 10040 10036 10035 10035
10399 10398 10398 10397 10395 10385 10379 10373 10370 10364 10356 10347 10337 10330 10320 10310 10299 10285 10273 10258 10241 10223 10208 10194 10176 10157 10144 10129 10117 10105 10095 10087 10080 10072 10065 10058 10050 10043 10037 10033 10030 10025 10022 10022
10384 10384 10384 10379 10375 10368 10362 10357 10353 10348 10338 10332 10322 10310 10303 10293 10281 10270 10257 10241 10224 10207 10191 10176 10159 10144 10130 10118 10107 10093 10085 10078 10070 10061 10054 10048 10039 10034 10027 10021 10018 10014 10011 10010
10370 10365 10362 10361 10356 10348 10348 10339 10336 10327 10321 10315 10302 10295 10283 10274 10265 10254 10239 10225 10207 10191 10175 10159 10144 10131 10120 10108 10096 10083 10075 10068 10061 10051 10043 10037 10028 10021 10018 10009 10007 10004 10001 9999
10346 10343 10342 10342 10335 10334 10329 10322 10316 10310 10303 10293 10286 10275 10265 10255 10247 10235 10221 10208 10192 10176 10160 10145 10134 10121 10108 10097 10085 10074 10065 10057 10050 10042 10033 10026 10019 10010 10005 10002 9995 9991 9991 9989